ARIANE 1 DEB, 40774

Orbit data source: Space-Track

ARIANE 1 DEB, 40774 is space debris in HEO originally from a launch on Mon, 24 Dec 1979 UTC launched from the French Guiana (FRGUI). Debris objects in space refer to the collection of defunct objects orbiting the Earth. Examples of debris include non-operational satellites, rocket bodies, and fragments generated from explosions, collisions, or faulty payload assembly.

Loading next visibility...
Identifier
40774, 1979-104AB
Orbit
HEO
Country
Flag of FRFR
Related business
Manufacturer
Unknown
Mission
Spacecraft
Bus & Motor
Unknown
Mass
Unknown
Launch date (UTC)
1979-12-24 (46 years ago)
Launch vehicle
Unknown
Launch site
French Guiana (FRGUI)
Object type
Payload
Rocket body
Debris
Shape & HBR
Unknown
Radar Cross Section
Small (<0.1 m²)

Expand to show TLE details & history
Last TLE update: 19 hours ago

TLE from 19 hours ago
0 ARIANE 1 DEB
1 40774U 79104AB  25259.12700956  .00000822  00000-0  17934-2 0  9994
2 40774  18.5338 245.0467 5908033 149.3292 265.1564  4.00537119 29581
Epoch: 2025-09-16T03:02Z
TLE epoch observation values (Epoch: 2025-09-16T03:02:53.625Z)
Latitude
-0.00003°
Longitude
-156.01065°
Altitude
15,772.639 km
Speed
3.492 km/s
True Right ascension
16h 20m 08s
True Declination
0° 00' 00"
Sunlit
Object was in daylight at epoch
Visualization orbit readout
Latitude
Unknown
Longitude
Unknown
Altitude
Unknown
Speed
Unknown
Apparent Right ascension
Unknown
Apparent Declination
Unknown
Sunlit
N/A
Visualization observer readout
Local Sidereal Time
14:30:59
Azimuth
Unknown
Elevation
Unknown
Doppler factor
Unknown
Orbital elements
Apogee altitude
20,272.049 km
Perigee altitude
476.996 km
Semi-major axis
16,752.659 km
Eccentricity
0.5908
Inclination
18.5338°
RAAN
245.0467°
Arg. of periapsis
149.3292°
True anomaly
210.6848°
Mean anomaly
265.1564°
Eccentric anomaly
236.82379°
Mean motion
1.00096 °/min
Orbital period
359.65 mins
BSTAR
0.0017934
Loading maneuver chart data...
Computing Atmospheric mass density...
Loading historical data...
Loading historical data...
Loading historical data...
Loading historical data...
Loading historical data...
Loading historical data...
Loading historical data...

Documentation

Showing up to 5 results
|